Regional Weather Roundup
Issued by NWS

Home | Current Version | Previous Version | Text Only | Print | Product List | Glossary On
Versions: 1 2 3 4 5 6 7 8 9 10 11 12 13 14 15 16 17 18 19 20 21 22 23 24 25 26 27 28 29 30 31 32 33 34 35 36 37 38 39 40 41 42 43 44 45 46 47 48 49 50
000
ASUS44 KMEG 020210
RWRTN
TENNESSEE HOURLY STATE WEATHER ROUNDUP
NATIONAL WEATHER SERVICE MEMPHIS TN
800 PM CST SUN FEB 01 2015

TNZ002-004-019-021-049-052-054-088>092-020300-
WEST TENNESSEE

CITY           SKY/WX    TMP DP  RH WIND       PRES   REMARKS
MEMPHIS INTL   CLOUDY    45  37  73 NW16G22   29.86R
NWS MEMPHIS      N/A     44 N/A N/A MISG        N/A
JACKSON        CLOUDY    47  40  76 W20G31    29.78R
DYERSBURG      CLOUDY    43  28  56 W20G30    29.81R
UNION CITY     CLOUDY    43  43 100 NW21      29.75R
PARIS          CLOUDY    46  43  87 W13       29.72R
LEXINGTON      CLOUDY    48  45  87 W9        29.73R
SAVANNAH       CLOUDY    50  48  93 W9        29.76R
$$

TNZ008-025-027-028-033-062-065-066-020300-
NORTH MIDDLE TENNESSEE

CITY           SKY/WX    TMP DP  RH WIND       PRES   REMARKS
NASHVILLE      LGT RAIN  55  52  89 W16G26    29.66R
CLARKSVILLE    CLOUDY    50  45  83 W12       29.68R
SMYRNA         LGT RAIN  56  53  89 W22G28    29.66R
COOKEVILLE     CLOUDY    54  52  94 SW15      29.64F
CROSSVILLE     RAIN      51  47  86 S6        29.70R FOG
$$

TNZ061-075-076-078-094-096-097-020300-
SOUTH MIDDLE TENNESSEE

CITY           SKY/WX    TMP DP  RH WIND       PRES   REMARKS
FAYETTEVILLE   CLOUDY    54  54 100 MISG      29.70F
TULLAHOMA      CLOUDY    54  52  94 SW13      29.69F
WINCHESTER     CLOUDY    54  52  94 S7        29.70F
MCMINNVILLE    MOCLDY    54  54 100 S9        29.67F
COLUMBIA       MOCLDY   N/A N/A N/A W10       29.69R
SHELBYVILLE    CLOUDY    57  55  94 S13       29.68S
$$

TNZ017-018-042-046-047-020300-
NORTHEAST TENNESSEE

CITY           SKY/WX    TMP DP  RH WIND       PRES   REMARKS
TRI CITIES     CLOUDY    54  44  69 S15G23    29.72F
ELIZABETHTON   CLOUDY    50  41  71 SE12G22   29.75F
$$

TNZ012-013-036-069-073-074-020300-
CENTRAL EAST TENNESSEE

CITY           SKY/WX    TMP DP  RH WIND       PRES   REMARKS
KNOXVILLE      LGT RAIN  56  47  71 S13       29.67F
OAK RIDGE      LGT RAIN  47  45  93 VRB6      29.70F FOG
GATLINBURG     MOCLDY    57  45  62 S16       29.67F
MORRISTOWN     CLOUDY    43  43 100 NW3       29.70F
$$

TNZ083-085-099-020300-
SOUTHEAST TENNESSEE

CITY           SKY/WX    TMP DP  RH WIND       PRES   REMARKS
CHATTANOOGA    CLOUDY    55  52  89 S15G24    29.73F FOG
$$

SKY/WX REPORTED AS FAIR MEANS FEW OR NO CLOUDS BELOW
12 THOUSAND FEET.



USA.gov is the U.S. government's official web portal to all federal, state and local government web resources and services.